#timestamp,LO_Frequency,Hit,StdDev 
1633226415.3,286047000.2,N
1633226435.1,286046998.2,N
1633226455.8,286046998.8,N
1633226475.7,286046999.5,N
1633226495.5,286046998.9,N
1633226515.4,286046999.5,N
1633226535.2,286046998.9,N
1633226555.0,286046998.9,N
1633226555.9,286046998.9,N
1633226575.8,286046999.0,N
1633226595.6,286046998.7,N
1633226615.4,286046996.6,N
1633226635.3,286046999.4,N
1633226655.1,286046997.0,N
1633226675.9,286046996.6,N
1633226695.7,286046998.9,N
1633226715.5,286046998.8,N
1633226735.4,286047001.0,N
1633226755.2,286046999.0,N
1633226775.0,286046996.5,N
1633226775.9,286046996.5,N
1633226795.8,286046998.4,N
1633226815.6,286046999.5,N
1633226835.5,286046998.8,N
1633226855.3,286047001.1,N
1633226875.1,286046998.3,N
1633226895.9,286046998.8,N
1633226915.7,286047000.7,N
1633226935.5,286047001.1,N
1633226955.4,286047000.2,N
1633226975.2,286047000.5,N
1633226995.1,286047000.5,N
1633226996.0,286047000.5,N
1633227015.8,286047000.1,N
1633227035.6,286047002.2,N
1633227055.5,286047002.7,N
1633227075.3,286047001.8,N
1633227095.2,286047001.6,N
1633227115.9,286047001.6,N
1633227135.7,286047002.7,N
1633227155.6,286047002.2,N
1633227175.4,286047001.4,N
1633227195.2,286047001.9,N
1633227215.1,286047002.2,N
1633227216.0,286047002.2,N
1633227235.8,286047001.4,N
1633227255.7,286047001.7,N
1633227275.5,286047002.2,N
1633227295.3,286047001.4,N
1633227315.2,286047011.9,Y
1633227335.0,286047002.8,P
1633227335.9,286047002.8,N
1633227355.7,286047001.5,N
1633227375.6,286047001.9,N
1633227395.4,286047004.2,Y
1633227415.3,286047000.2,P
1633227435.1,286047002.4,N
1633227455.8,286047000.3,N
1633227475.7,286047002.5,N
1633227495.5,286047002.7,N
1633227515.4,286047002.3,N
1633227535.2,286047001.6,N
1633227555.0,286047003.9,Y
1633227555.9,286047003.9,P
1633227575.8,286047002.3,N
1633227595.6,286046999.9,N
1633227615.4,286046999.8,N
1633227635.3,286047002.0,N
1633227655.1,286046999.8,N
1633227675.9,286047002.3,N
1633227695.7,286047002.6,N
1633227715.5,286046999.7,N
1633227735.4,286047000.3,N
1633227755.2,286047002.3,N
1633227775.0,286047001.7,N
1633227775.9,286047001.7,N
1633227795.8,286047002.4,N
1633227815.6,286047004.0,Y
1633227835.5,286047002.6,P
1633227855.3,286047002.0,P
1633227875.1,286047001.4,P
1633227895.9,286047002.2,Y
1633227915.7,286046998.2,P
1633227935.5,286047001.0,N
1633227955.4,286047000.1,N
1633227975.2,286047001.1,N
1633227995.1,286047000.1,N
1633227996.0,286047000.1,N
1633228015.8,286046999.8,N
1633228035.6,286047000.1,N
1633228055.5,286047002.3,N
1633228075.3,286047001.5,N
1633228095.2,286047002.5,N
1633228115.9,286047001.7,N
1633228135.7,286047004.2,Y
1633228155.6,286047002.2,P
1633228175.4,286047002.4,P
1633228195.2,286047002.1,N
1633228215.1,286047003.9,Y
1633228216.0,286047003.9,P
1633228235.8,286047002.3,N
1633228255.7,286047001.5,N
1633228275.5,286047001.8,N
1633228295.3,286047001.5,N
1633228315.2,286047001.6,N
1633228335.0,286047004.1,Y
1633228335.9,286047004.1,P
1633228355.8,286047000.1,N
1633228375.6,286047000.9,N
1633228395.4,286047000.8,N
1633228415.3,286047000.0,N
1633228435.1,286047002.7,N
1633228455.8,286047002.6,N
1633228475.7,286046999.9,N
1633228495.5,286046999.9,N
1633228515.4,286047002.5,N
1633228535.2,286047004.0,N
1633228555.0,286047003.0,N
1633228555.9,286047003.0,N
1633228575.8,286047005.3,Y
1633228595.6,286047000.2,P
1633228615.5,286047000.9,N
1633228635.3,286047000.4,N
1633228655.1,286046999.8,N
1633228675.9,286047001.0,N
1633228695.7,286047000.5,N
1633228715.6,286047002.4,Y
1633228735.4,286047001.3,P
1633228755.2,286047003.6,P
1633228775.1,286047002.9,N
1633228776.0,286047002.9,N
1633228795.8,286047003.4,Y
1633228815.7,286047004.0,P
1633228835.5,286047001.3,N
1633228855.3,286047002.2,N
1633228875.2,286047000.9,N
1633228895.0,286046998.7,N
1633228895.9,286046998.7,N
1633228915.7,286046999.0,N
1633228935.6,286046996.6,N
1633228955.4,286046997.2,N
1633228975.3,286046999.2,N
1633228995.1,286046999.6,N
1633228996.0,286046999.6,N
1633229015.8,286046997.0,N
1633229035.7,286046996.5,N
1633229055.5,286046999.1,N
1633229075.3,286046997.0,N
1633229095.2,286046997.6,N
1633229115.0,286046996.9,N
1633229115.9,286046996.9,N
1633229135.8,286046996.9,N
1633229155.6,286046997.4,N
1633229175.4,286046997.2,N
1633229195.3,286046998.7,N
1633229215.1,286046998.7,N
1633229235.9,286046998.8,N
1633229255.7,286046998.4,N
1633229275.5,286046998.7,N
1633229295.4,286046998.5,N
1633229315.2,286046998.5,N
1633229335.0,286047000.6,N
1633229335.9,286047000.6,N
1633229355.8,286047000.4,N
1633229375.6,286047002.8,N
1633229395.5,286047002.4,N
1633229415.3,286047002.4,N
1633229435.1,286047002.0,N
1633229455.9,286047005.5,Y
1633229475.7,286047006.1,P
1633229495.5,286047006.5,N
1633229515.4,286047009.0,N
1633229535.2,286047007.9,N
1633229555.1,286047010.4,N
1633229556.0,286047010.4,N
1633229575.8,286047008.2,N
1633229595.6,286047010.4,N
1633229615.5,286047012.4,Y
1633229635.3,286047003.7,P
1633229655.1,286047003.3,N
1633229675.9,286047003.8,N
1633229695.7,286047003.5,N
1633229715.6,286047003.5,N
1633229735.4,286047003.5,N
1633229755.2,286047005.8,Y
1633229775.1,286046999.9,P
1633229776.0,286046999.9,N
1633229795.8,286047000.6,N
1633229815.7,286047000.1,N
1633229835.5,286047000.3,N
1633229855.3,286047001.9,N
1633229875.2,286047002.8,N
1633229895.9,286047002.1,N
1633229915.7,286047002.7,N
1633229935.6,286047002.8,N
1633229955.4,286046998.1,N
1633229975.3,286047000.5,N
1633229995.1,286046998.7,N
1633229996.0,286046998.7,N
